星链-6131 (STARLINK-6131 )

导读

STARLINK-6131是美国太空探索技术公司 SpaceX 发射的星链卫星,星链是 SpaceX 打造的低轨卫星互联网星座计划。该星于北京时间2023年6月23日发射,加入近地轨道星座组网,旨在为全球提供高速低延迟互联网服务,推进星链全球覆盖部署进程。

基本信息
目录编号:
57107
目录名称:
STARLINK-6131
国际标识:
2023-090G
轨道中心:
EARTH
卫星名称:
星链-6131
卫星全名:
星链-6131 (STARLINK-6131 )
卫星状态:
在轨 (已飞行1087 天)
发射日期:
2023-06-23 UTC
国别 :
美国 (US)
星等 :
--
轨道信息
数据来源 国际轨道数据 AOE轨道数据
星历时间 2026-06-14T20:20:37+0800
10小时前
查看轨道信息
2026-06-13T01:00:00+0800
2天前
查看轨道信息
半长轴 6861.198km 6861.149km
偏心率 0.0001381 0.0000561
轨道倾角 43.012° 43.004°
近地点辐角 269.308° 82.352°
升交点赤经 94.467° 104.667°
平近点角 90.762° 54.483°
近地点 482.113km 482.627km
远地点 484.009km 483.397km
周期 94.267分钟 94.266分钟
每日圈数 15.275762 15.275927
详细信息
固有亮度:
5
最大亮度:
2.4
卫星平台:
Starlink v1.5
覆盖范围:
全球
运营商:
太空探索技术公司
运营商所在国:
美国
制造商(研发单位):
太空探索技术公司
制造商所在国:
美国
使用方式:
暂无
卫星简介
星链(Starlink)计划是由太空探索技术公司(SpaceX)提出的一个巨型低轨卫星互联网星座项目,计划在2019年至2024年间在太空搭建由约1.2万颗卫星组成的“星链”网络,其中1584颗将部署在地球上空550千米处的近地轨道,并从2020年开始工作。该卫星仍在工作。
2D轨道图
3D轨道图
轨道高度分析图
轨道倾角分析图
轨道综合分析图
查看轨道综合分析图